Regional Weather Roundup
Issued by NWS Midland/Odessa, TX

Home | Current Version | Previous Version | Text Only | Print | Product List | Glossary On
Versions: 1 2 3 4 5 6 7 8 9 10 11 12 13 14 15 16 17 18 19 20 21 22 23 24 25 26 27 28 29 30 31 32 33 34 35 36 37 38 39 40 41 42 43 44 45 46 47 48 49 50
000
ASUS44 KMAF 302010
RWRMAF
MIDLAND AREA WEATHER ROUNDUP
NATIONAL WEATHER SERVICE MIDLAND TX
300 PM CDT SUN APR 30 2017

...IN SOUTHWEST TEXAS AND SOUTHEAST NEW MEXICO...

CITY           SKY/WX    TMP DP  RH WIND       PRES   REMARKS
ALPINE         SUNNY     69  15  12 W21G35    30.08F
ANDREWS        FAIR      64  32  31 NW17G26   29.97S
ARTESIA        SUNNY     68  25  19 NW13      29.96S
BIG SPRING       N/A     63  33  32 W24       29.99S
CARLSBAD       SUNNY     69  29  22 W24G30    29.95F
DRYDEN           N/A     80  16   9 W16G24    29.91F
FORT STOCKTON  SUNNY     73  21  14 NW28G38   29.97F
GUAD PASS      SUNNY     62  27  26 W33G44    30.02S
HOBBS          MOSUNNY   64  28  25 W17G29    29.97F
MARFA          SUNNY     67  16  14 W28G39    30.07F
MIDLAND AIRPK  MOSUNNY   67  31  26 W23G29    29.98S
MIDLAND INTL   MOSUNNY   67  30  25 W20G28    29.96F
ODESSA         SUNNY     67  29  24 W16G25    29.97F
PECOS          SUNNY     73  24  16 W21G31    29.95F
PRESIDIO       FAIR      77  23  13 SW9G30    30.02F
SEMINOLE       CLOUDY    62  32  33 NW17G26   29.97S
SNYDER         MOSUNNY  N/A N/A N/A W22G35    29.95S
WINK           SUNNY     70  28  21 W22       29.94F
$$
...OTHER STATIONS IN TEXAS...

CITY           SKY/WX    TMP DP  RH WIND       PRES   REMARKS
ABILENE        MOSUNNY   66  32  28 W28G39    29.88F
AMARILLO       CLOUDY    42  27  55 NW33G45   29.85R WCI  31
AUSTIN         SUNNY     75  36  24 W10G20    29.92S
BROWNSVILLE    SUNNY     84  53  34 NE16G24   29.92F
CORPUS CHRISTI SUNNY     81  38  21 NW14G24   29.93F
DALLAS FTW     MOSUNNY   69  32  25 W28G44    29.77S
DEL RIO        SUNNY     75  33  21 NW14G21   29.94F
EL PASO        MOSUNNY   70  13  11 W18G24    30.04F
HOUSTON INT    SUNNY     71  42  35 W14G26    29.92F
LUBBOCK        MOSUNNY   61  22  22 NW39G49   29.90F
SAN ANGELO     SUNNY     71  30  21 W23G35    29.94F
SAN ANTONIO    SUNNY     76  36  23 W14G22    29.93F
WACO           SUNNY     72  36  26 W18G31    29.86F
WICHITA FALLS  NOT AVBL
$$
...OTHER LOCATIONS IN NEW MEXICO...

CITY           SKY/WX    TMP DP  RH WIND       PRES   REMARKS
ALAMOGORDO     SUNNY     63  25  23 NW14G20   30.06F
ALBUQUERQUE    MOSUNNY   60  12  15 NW25G37   30.02F
CANNON AFB     SUNNY     55  26  32 NW16      29.94F
CLOVIS         SUNNY     55  27  33 NW17G29   29.94F
HOLLOMAN AFB   SUNNY     63  27  26 N7G16     30.07F
ROSWELL        SUNNY     68  27  21 NW24G38   29.97F
RUIDOSO        SUNNY     50  21  32 NW23G39   30.04F
SANTA FE       SUNNY     50  34  54 SW9       30.00F
TRUTH OR CONSE SUNNY     68  10  10 N7G18     30.01F
TUCUMCARI      SUNNY     55  31  39 N9G18     29.92F
$$




USA.gov is the U.S. government's official web portal to all federal, state and local government web resources and services.